Regional Weather Roundup
Issued by NWS

Home | Current Version | Previous Version | Graphics & Text | Print | Product List | Glossary On
Versions: 1 2 3 4 5 6 7 8 9 10 11 12 13 14 15 16 17 18 19 20 21 22 23 24 25 26 27 28 29 30 31 32 33 34 35 36 37 38 39 40 41 42 43 44 45 46 47 48
000
ASUS43 KDMX 221107
RWRIA

WEATHER ROUNDUP FOR IOWA
NATIONAL WEATHER SERVICE DES MOINES IA
600 AM CDT MON SEP 22 2014

NOTE: "FAIR" INDICATES FEW OR NO CLOUDS BELOW 12,000 FEET WITH NO
SIGNIFICANT WEATHER AND/OR OBSTRUCTIONS TO VISIBILITY.

* - THESE STATIONS ARE NOT NWS STATIONS...THUS NOT UNDER NWS
QUALITY CONTROL.  THEY ALSO DO NOT REPORT WEATHER SUCH
AS PRECIPITATION OR FOG.

IAZ001>003-012>014-020>022-031>034-043>046-221200-
   NORTHWEST IOWA

CITY           SKY/WX    TMP DP  RH WIND       PRES   REMARKS
CARROLL *      CLEAR     43  43 100 CALM      30.31R
CHEROKEE *     CLEAR     43  43 100 CALM      30.30S FOG
DENISON *      CLEAR     43  43 100 CALM      30.29S
LE MARS *        N/A     43  43 100 CALM      30.29F
ORANGE CITY *  CLEAR     48  45  87 CALM      30.29S
SHELDON *      CLEAR     41  41 100 CALM      30.28S
SIOUX CITY     CLEAR     46  44  93 E3        30.30R
SPENCER        CLEAR     42  40  92 CALM      30.29S
STORM LAKE *   CLEAR     46  46 100 W7        30.30S
$$

IAZ055>058-069>071-079>083-090>094-221200-
   SOUTHWEST IOWA

CITY           SKY/WX    TMP DP  RH WIND       PRES   REMARKS
ATLANTIC *     CLEAR     43  43 100 CALM      30.31R
AUDUBON *      CLEAR     43  37  81 CALM      30.32S
CLARINDA *     FOG       45  45 100 N3        30.33R VSB 1
COUNCIL BLFS * CLEAR     50  50 100 CALM      30.30R
CRESTON *      CLEAR     46  46 100 NW5       30.31R
HARLAN  *      CLEAR     43  43 100 CALM      30.34S
LAMONI         CLEAR     50  47  89 CALM      30.30R
RED OAK *      CLEAR     45  45 100 CALM      30.31S
SHENANDOAH *   FOG       45  45 100 CALM      30.32S VSB 1/2
$$

IAZ047>049-059>061-072>074-084-221200-
   CENTRAL IOWA

CITY           SKY/WX    TMP DP  RH WIND       PRES   REMARKS
AMES           CLEAR     44  43  96 W3        30.28R
ANKENY *       CLEAR     45  45 100 CALM      30.29R
CHARITON *     CLEAR     46  45  93 W5        30.29R
DES MOINES     CLEAR     50  46  86 NW3       30.29R
GRINNELL*      CLEAR     45  43  93 NW3       30.28S
KNOXVILLE *    CLEAR     45  43  93 W3        30.27R FOG
MARSHALLTOWN   FOG       42  41  96 NW5       30.27S VSB 3/4
PELLA *        CLEAR     46  46 100 CALM      30.29R
PERRY *          N/A     45  45 100 NW3       30.30R
$$

IAZ004>006-015-016-023>025-035-036-221200-
   NORTH CENTRAL IOWA

CITY           SKY/WX    TMP DP  RH WIND       PRES   REMARKS
ALGONA *       CLEAR     43  43 100 W5        30.29R
CLARION *        N/A     41  41 100 CALM      30.28R
ESTHERVILLE    CLEAR     41  40  96 SW6       30.29R
FORT DODGE *   CLEAR     43  41  93 CALM      30.30R
MASON CITY     CLEAR     42  41  96 CALM      30.28R
FOREST CITY *  FOG       41  41 100 CALM      30.27S VSB 1/2
IOWA FALLS *     N/A     43  41  93 CALM      30.29R
$$

IAZ007>011-017>019-026>030-037>042-050>054-066-221200-
   NORTHEAST IOWA

CITY           SKY/WX    TMP DP  RH WIND       PRES   REMARKS
CEDAR RAPIDS   CLEAR     42  42 100 NW6       30.27R
CHARLES CITY * FOG       43  41  93 CALM      30.28R VSB 1
CLINTON *      CLEAR     43  39  87 N6        30.29R
DECORAH *      CLEAR     45  45 100 CALM      30.25R
DUBUQUE        CLEAR     40  39  97 CALM      30.26R
MONTICELLO *   CLEAR     39  39 100 CALM      30.27R FOG
OELWEIN *      FOG       41  41 100 NW5       30.28R VSB 1/2
WATERLOO       FOG       40  40 100 CALM      30.26S VSB 1
$$

IAZ064-065-067-068-078-221200-
   EAST CENTRAL IOWA

CITY           SKY/WX    TMP DP  RH WIND       PRES   REMARKS
DAVENPORT      CLEAR     41  39  93 N6        30.26R
IOWA CITY        N/A     45  44  97 CALM      30.28R
MT. PLEASANT * CLEAR     46  45  93 N5        30.27R
MUSCATINE *    CLEAR     46  45  93 CALM      30.27R
QUAD CITIES    CLEAR     43  41  93 CALM      30.26R
$$

IAZ062-063-075>077-085>089-095>099-221200-
   SOUTHEAST IOWA

CITY           SKY/WX    TMP DP  RH WIND       PRES   REMARKS
BURLINGTON     CLEAR     47  46  97 N5        30.26R
FAIRFIELD *    CLEAR     45  43  93 NW6       30.28R
FORT MADISON * CLEAR     48  46  93 CALM      30.27R
KEOKUK *       CLEAR     48  48 100 N6        30.25S
OSKALOOSA *      N/A     45  43  93 CALM      30.28R
CENTERVILLE *  CLEAR     45  45 100 NW3       30.29S
OTTUMWA        CLEAR     45  43  93 NW5       30.28R
WASHINGTON *   CLEAR     46  45  93 N3        30.27R
$$

ABBREVIATIONS USED IN REMARKS
   TC - TEMPERATURES IN CELSIUS
  WCI - WIND CHILL INDEX
   HX - HEAT INDEX
  VSB - VISIBILITY
$$




USA.gov is the U.S. government's official web portal to all federal, state and local government web resources and services.